TimeMDT,TemperatureF,Dew PointF,Humidity,Sea Level PressureIn,VisibilityMPH,Wind Direction,Wind SpeedMPH,Gust SpeedMPH,PrecipitationIn,Events,Conditions,WindDirDegrees,DateUTC
12:06 AM,19.4,17.6,93,29.95,8.0,Calm,Calm,-,N/A,,Mostly Cloudy,0,2013-03-10 07:06:00
12:25 AM,19.4,19.4,100,29.95,10.0,SSW,3.5,-,N/A,,Overcast,200,2013-03-10 07:25:00
12:32 AM,19.4,19.4,100,29.95,8.0,South,3.5,-,N/A,,Overcast,180,2013-03-10 07:32:00
12:52 AM,19.9,19.0,96,30.04,10.0,South,3.5,-,N/A,,Overcast,190,2013-03-10 07:52:00
1:28 AM,21.2,21.2,100,29.97,3.0,WSW,3.5,-,0.00,Snow,Light Snow,240,2013-03-10 08:28:00
1:30 AM,21.2,21.2,100,29.97,2.5,SW,4.6,-,0.00,Snow,Light Snow,220,2013-03-10 08:30:00
1:47 AM,19.4,19.4,100,29.98,3.0,SSW,9.2,-,0.00,Snow,Light Snow,200,2013-03-10 08:47:00
1:48 AM,19.9,19.0,96,30.06,3.0,SSW,9.2,-,0.00,Snow,Light Snow,200,2013-03-10 08:48:00
1:57 AM,19.4,17.6,93,29.97,6.0,SSW,6.9,-,0.00,,Overcast,200,2013-03-10 08:57:00
3:52 AM,19.9,16.0,85,30.05,3.0,East,4.6,-,0.00,Snow,Light Snow,80,2013-03-10 09:52:00
3:58 AM,19.4,15.8,86,29.97,1.8,East,4.6,-,0.00,Snow,Light Snow,90,2013-03-10 09:58:00
4:10 AM,19.4,15.8,86,29.98,2.0,East,4.6,-,0.00,Snow,Light Snow,80,2013-03-10 10:10:00
4:18 AM,19.4,17.6,93,29.98,1.2,East,3.5,-,0.01,Snow,Light Snow,80,2013-03-10 10:18:00
4:44 AM,19.4,17.6,93,29.98,3.0,Calm,Calm,-,0.01,Snow,Light Snow,0,2013-03-10 10:44:00
4:52 AM,19.0,17.1,92,30.08,3.0,Calm,Calm,-,0.01,Snow,Light Snow,0,2013-03-10 10:52:00
4:59 AM,19.4,17.6,93,29.99,2.5,Calm,Calm,-,0.00,Snow,Light Snow,0,2013-03-10 10:59:00
5:06 AM,19.4,17.6,93,29.99,5.0,Calm,Calm,-,N/A,Snow,Light Snow,0,2013-03-10 11:06:00
5:17 AM,19.4,17.6,93,29.99,10.0,Calm,Calm,-,0.00,,Overcast,0,2013-03-10 11:17:00
5:52 AM,17.6,15.8,93,30.00,10.0,WSW,3.5,-,N/A,,Overcast,250,2013-03-10 11:52:00
6:22 AM,14.0,12.2,93,30.01,10.0,West,4.6,-,N/A,,Overcast,280,2013-03-10 12:22:00
6:52 AM,10.9,10.0,96,30.16,9.0,WNW,4.6,-,N/A,,Scattered Clouds,290,2013-03-10 12:52:00
7:15 AM,10.4,8.6,92,30.02,1.8,NW,4.6,-,N/A,,Clear,310,2013-03-10 13:15:00
7:25 AM,8.6,8.6,100,30.03,0.5,WNW,5.8,-,N/A,Fog,Light Freezing Fog,300,2013-03-10 13:25:00
7:37 AM,8.6,6.8,92,30.03,0.2,North,3.5,-,N/A,Fog,Light Freezing Fog,350,2013-03-10 13:37:00
7:52 AM,10.0,9.0,95,30.19,0.2,Calm,Calm,-,N/A,Fog,Light Freezing Fog,0,2013-03-10 13:52:00
8:52 AM,8.1,8.1,100,30.22,1.2,SSW,3.5,-,N/A,,Scattered Clouds,210,2013-03-10 14:52:00
8:59 AM,10.4,10.4,100,30.06,3.0,Calm,Calm,-,N/A,,Partly Cloudy,0,2013-03-10 14:59:00
9:52 AM,15.8,12.2,86,30.07,10.0,Calm,Calm,-,N/A,,Clear,0,2013-03-10 15:52:00
10:52 AM,21.9,12.0,66,30.17,10.0,North,5.8,-,0.04,,Clear,10,2013-03-10 16:52:00
11:52 AM,21.9,12.0,66,30.17,10.0,Calm,Calm,-,N/A,,Clear,0,2013-03-10 17:52:00
12:52 PM,24.1,14.0,65,30.18,10.0,SSW,3.5,-,N/A,,Clear,200,2013-03-10 18:52:00
1:52 PM,26.1,14.0,60,30.16,10.0,SSW,3.5,-,N/A,,Clear,210,2013-03-10 19:52:00
2:52 PM,28.0,17.1,63,30.14,10.0,South,4.6,-,N/A,,Clear,190,2013-03-10 20:52:00
3:52 PM,30.0,18.0,61,30.13,10.0,South,6.9,-,N/A,,Clear,170,2013-03-10 21:52:00
4:52 PM,30.9,16.0,54,30.13,10.0,Calm,Calm,-,N/A,,Clear,0,2013-03-10 22:52:00
5:52 PM,30.9,19.0,61,30.14,10.0,SSW,4.6,-,N/A,,Clear,200,2013-03-10 23:52:00
6:52 PM,28.0,19.9,72,30.20,10.0,SW,3.5,-,N/A,,Clear,220,2013-03-11 00:52:00
7:52 PM,24.1,17.1,75,30.27,10.0,Calm,Calm,-,N/A,,Clear,0,2013-03-11 01:52:00
8:52 PM,21.9,15.1,75,30.31,10.0,West,4.6,-,N/A,,Clear,280,2013-03-11 02:52:00
9:52 PM,19.9,15.1,81,30.30,10.0,Calm,Calm,-,N/A,,Clear,0,2013-03-11 03:52:00
10:52 PM,18.0,14.0,84,30.27,10.0,Calm,Calm,-,N/A,,Clear,0,2013-03-11 04:52:00
11:52 PM,17.1,12.9,84,30.30,10.0,West,4.6,-,N/A,,Clear,280,2013-03-11 05:52:00
12:52 AM,12.9,10.9,92,30.31,10.0,Calm,Calm,-,N/A,,Clear,0,2013-03-11 06:52:00